Home > Time Zones > World Clock > Weather > Iran > Tabriz > Past weeks

Flag for Iran Weather past 2 weeks in Tabriz, Iran

Now
43 °F

Clear.


Feels Like: 40 °F
Forecast: 32 / 64 °F
Wind: 5 mph from Northeast

Location: Tabriz Airport

Current Time: Mar 28, 2015 at 12:17:41 AM

Latest Report: Mar 27, 2015 at 11:30 PM


Visibility: 10 mi

Pressure: 30.21 "Hg

Humidity: 61%

Dew point: 30 °F

Location of TabrizLocation

Historic Weather in Tabriz — Graph

°F

Tabriz temperature yesterday

Maximum temperature yesterday: 57 °F (at 4:30 PM)
Minimum temperature yesterday: 30 °F (at 7:00 AM)
Average temperature yesterday: 44 °F

Past Weeks' High & Low Weather Summary

 TemperatureHumidityPressure
High61 °F (Mar 14, 2:00 PM)93% (Mar 22, 11:00 AM)30.33 "Hg (Mar 22, 11:00 AM)
Low27 °F (Mar 19, 7:00 AM)25% (Mar 14, 2:00 PM)29.77 "Hg (Mar 22, 3:00 PM)
Average45 °F59%30.07 "Hg
* Reported Mar 12 10:30 PM — Mar 27 11:30 PM, Tabriz, Weather by CustomWeather, © 2015

Note: Actual official high and low records may vary slightly from our data, if they occured in-between our weather recording intervals... More about our weather records

Advertising

Tabriz weather history for previous 24 hours

 ConditionsComfort  
Time TempWeatherWind HumidityBarometerVisibility
11:30 PM
Fri, Mar 27
43 °FClear.5 mph61%30.21 "Hg10 mi
11:00 PM45 °FClear.5 mph57%30.21 "Hg10 mi
10:30 PM45 °FClear.No wind57%30.21 "Hg10 mi
10:00 PM46 °FClear.No wind57%30.21 "Hg10 mi
9:30 PM48 °FClear.5 mph50%30.21 "Hg10 mi
9:00 PM48 °FScattered clouds.5 mph54%30.21 "HgN/A
8:30 PM50 °FScattered clouds.2 mph47%30.18 "HgN/A
8:00 PM52 °FScattered clouds.5 mph44%30.18 "HgN/A
7:30 PM54 °FPartly sunny.5 mph38%30.18 "HgN/A
7:00 PM55 °FSunny.7 mph36%30.21 "Hg10 mi
6:30 PM57 °FSunny.7 mph33%30.21 "Hg10 mi
6:00 PM57 °FSunny.7 mph36%30.21 "Hg10 mi
5:30 PM57 °FSunny.7 mph33%30.21 "Hg10 mi
5:00 PM57 °FSunny.12 mph31%30.21 "Hg10 mi
4:30 PM57 °FSunny.7 mph36%30.21 "Hg10 mi
4:00 PM55 °FSunny.7 mph38%30.21 "Hg10 mi
3:30 PM54 °FSunny.7 mph41%30.24 "Hg10 mi
2:50 PM54 °FSunny.12 mph41%30.24 "Hg10 mi
2:20 PM54 °FSunny.7 mph41%30.27 "Hg10 mi
1:50 PM52 °FSunny.9 mph44%30.27 "Hg10 mi
1:30 PM52 °FSunny.7 mph44%30.30 "Hg10 mi
1:00 PM50 °FSunny.5 mph43%30.30 "Hg10 mi
12:20 PM50 °FSunny.5 mph43%30.30 "Hg10 mi
11:50 AM48 °FSunny.2 mph46%30.33 "Hg10 mi
11:30 AM48 °FSunny.5 mph46%30.33 "Hg10 mi
11:00 AM48 °FSunny.No wind50%30.33 "Hg10 mi
10:30 AM45 °FSunny.5 mph53%30.33 "Hg10 mi
10:00 AM43 °FSunny.5 mph61%30.33 "Hg10 mi
9:30 AM41 °FSunny.7 mph61%30.33 "Hg10 mi
9:00 AM39 °FSunny.5 mph70%30.33 "Hg10 mi
8:30 AM37 °FClear.7 mph70%30.33 "Hg10 mi
7:30 AM30 °FClear.5 mph86%30.30 "Hg10 mi
7:00 AM30 °FClear.5 mph86%30.30 "Hg10 mi
6:30 AM32 °FClear.5 mph80%30.30 "Hg10 mi
6:00 AM32 °FClear.9 mph80%30.30 "Hg10 mi
5:30 AM32 °FClear.7 mph80%30.30 "Hg10 mi
5:00 AM34 °FClear.9 mph75%30.30 "Hg10 mi
4:30 AM34 °FClear.7 mph75%30.30 "Hg10 mi
4:00 AM34 °FClear.5 mph75%30.30 "Hg10 mi
3:30 AM34 °FPassing clouds.7 mph75%30.30 "HgN/A
3:00 AM34 °FPassing clouds.9 mph75%30.30 "HgN/A
2:30 AM34 °FPassing clouds.12 mph75%30.30 "HgN/A
2:00 AM36 °FPassing clouds.9 mph75%30.30 "HgN/A
1:30 AM34 °FPassing clouds.7 mph81%30.30 "HgN/A
1:00 AM36 °FPassing clouds.7 mph75%30.30 "HgN/A
12:30 AM36 °FPassing clouds.7 mph75%30.30 "HgN/A
12:00 AM37 °FPassing clouds.5 mph70%30.30 "HgN/A
Weather by CustomWeather, © 2015

See weather overviewHow to use our weather pages